Hourly Data Report for October 27, 2014

All times are specified in Local Standard Time (LST). Add 1 hour to adjust for Daylight Saving Time where and when it is observed.

KAMLOOPS A
BRITISH COLUMBIA

50°42'09.000" N
120°26'55.000" W
345.30 m
1163781
71887
YKA

Download Data

Hourly Data (October 2014)
Hourly Data Report for October 27, 2014
Temp Definition
°C
Dew Point Temp Definition
°C
Rel Hum Definition
%
Wind Dir Definition
10's deg

Wind Spd Definition
km/h
Visibility Definition
km
Stn Press Definition
kPa
Hmdx Definition


Wind Chill Definition


Weather Definition


TIME
00:00 Legend Double Dagger 3.2 0.6 83 27 11 64.4 97.89     LegendNANA
01:00 Legend Double Dagger 3.0 0.2 82 25 14 64.4 97.89     Mainly Clear
02:00 Legend Double Dagger 2.8 -0.3 80 23 5 64.4 97.96     LegendNANA
03:00 Legend Double Dagger 1.7 -0.6 85 36 3 64.4 97.97     LegendNANA
04:00 Legend Double Dagger 0.5 -1.1 89 8 4 64.4 98.00     Mostly Cloudy
05:00 Legend Double Dagger 0.5 -1.4 87 36 2 64.4 98.01     LegendNANA
06:00 Legend Double Dagger -0.6 -2.3 88 36 3 64.4 98.02   -2 LegendNANA
07:00 Legend Double Dagger -0.6 -2.2 89 8 4 64.4 98.04   -2 Mostly Cloudy
08:00 Legend Double Dagger 0.4 -1.4 88 5 8 64.4 98.05     LegendNANA
09:00 Legend Double Dagger 2.1 -0.3 84 10 8 64.4 98.07     LegendNANA
10:00 Legend Double Dagger 3.4 0.1 79 11 11 64.4 98.04     Mostly Cloudy
11:00 Legend Double Dagger 4.4 0.4 75 10 9 64.4 98.02     LegendNANA
12:00 Legend Double Dagger 5.8 0.8 70 9 10 72.4 97.95     LegendNANA
13:00 Legend Double Dagger 6.5 0.2 64 10 5 64.4 97.91     Mostly Cloudy
14:00 Legend Double Dagger 7.8 1.0 62 10 9 64.4 97.81     LegendNANA
15:00 Legend Double Dagger 8.4 0.9 59 11 11 64.4 97.77     LegendNANA
16:00 Legend Double Dagger 8.5 0.5 57 7 14 64.4 97.72     Mostly Cloudy
17:00 Legend Double Dagger 7.4 -0.1 59 8 17 64.4 97.68     LegendNANA
18:00 Legend Double Dagger 7.7 0.2 59 8 24 64.4 97.66     LegendNANA
19:00 Legend Double Dagger 6.6 0.5 65 10 18 64.4 97.65     Mostly Cloudy
20:00 Legend Double Dagger 6.6 0.5 65 10 18 64.4 97.62     LegendNANA
21:00 Legend Double Dagger 6.6 0.7 66 11 17 64.4 97.59     LegendNANA
22:00 Legend Double Dagger 6.6 0.9 67 10 17 64.4 97.54     Cloudy
23:00 Legend Double Dagger 6.7 0.8 66 11 17 64.4 97.52     LegendNANA

Notes on Data Quality.

Legend

  • E = Estimated
  • M = Missing
  • NA = Not Available
  • ‡ = Partner data that is not subject to review by the National Climate Archives
Date modified: